TimeCDT,TemperatureF,Dew PointF,Humidity,Sea Level PressureIn,VisibilityMPH,Wind Direction,Wind SpeedMPH,Gust SpeedMPH,PrecipitationIn,Events,Conditions,WindDirDegrees,DateUTC
12:15 AM,61.0,53.8,77,29.82,10.0,East,6.9,-,N/A,,Overcast,100,2013-03-22 05:15:00
12:35 AM,60.3,54.5,81,29.83,10.0,ENE,4.6,-,N/A,,Overcast,60,2013-03-22 05:35:00
12:55 AM,60.3,54.5,81,29.82,10.0,East,5.8,-,N/A,,Overcast,100,2013-03-22 05:55:00
1:15 AM,60.3,54.7,82,29.81,10.0,ESE,5.8,-,N/A,,Overcast,110,2013-03-22 06:15:00
1:35 AM,60.1,54.9,83,29.80,10.0,ESE,4.6,-,N/A,,Overcast,110,2013-03-22 06:35:00
1:55 AM,59.2,54.7,85,29.79,10.0,East,8.1,-,N/A,,Overcast,100,2013-03-22 06:55:00
2:15 AM,58.6,54.9,87,29.77,10.0,ESE,10.4,-,N/A,,Overcast,110,2013-03-22 07:15:00
2:35 AM,59.0,55.6,88,29.77,10.0,ESE,5.8,-,N/A,,Overcast,120,2013-03-22 07:35:00
2:55 AM,59.4,56.3,90,29.76,10.0,ESE,11.5,-,N/A,,Overcast,120,2013-03-22 07:55:00
3:15 AM,60.1,57.4,91,29.75,10.0,SSE,5.8,-,N/A,,Overcast,150,2013-03-22 08:15:00
3:35 AM,60.4,58.1,92,29.73,10.0,SE,9.2,-,N/A,,Overcast,130,2013-03-22 08:35:00
3:55 AM,60.3,58.1,93,29.73,7.0,SE,5.8,-,N/A,,Overcast,130,2013-03-22 08:55:00
4:15 AM,60.8,58.5,92,29.72,7.0,SE,6.9,-,N/A,,Overcast,130,2013-03-22 09:15:00
4:35 AM,61.7,59.7,93,29.71,7.0,SE,6.9,-,N/A,,Overcast,130,2013-03-22 09:35:00
4:55 AM,63.9,61.5,92,29.71,10.0,SSE,13.8,18.4,N/A,,Overcast,150,2013-03-22 09:55:00
5:15 AM,64.2,61.5,91,29.71,10.0,SSE,11.5,-,N/A,,Overcast,150,2013-03-22 10:15:00
5:35 AM,64.2,61.7,91,29.72,10.0,SSE,11.5,-,N/A,,Overcast,150,2013-03-22 10:35:00
5:55 AM,64.4,61.7,91,29.72,10.0,SSE,9.2,-,N/A,,Overcast,150,2013-03-22 10:55:00
6:00 AM,64.4,62.6,94,29.73,10.0,SSE,8.1,-,N/A,,Mostly Cloudy,150,2013-03-22 11:00:00
6:15 AM,64.6,61.9,91,29.74,10.0,SSE,6.9,-,N/A,,Overcast,160,2013-03-22 11:15:00
6:35 AM,64.8,62.1,91,29.75,10.0,SSE,5.8,-,N/A,,Overcast,150,2013-03-22 11:35:00
6:50 AM,64.4,62.6,94,29.76,7.0,SSE,4.6,-,N/A,,Overcast,150,2013-03-22 11:50:00
6:55 AM,64.8,62.1,91,29.76,7.0,SSE,4.6,-,N/A,,Overcast,150,2013-03-22 11:55:00
7:50 AM,66.2,62.6,88,29.77,6.0,SE,3.5,-,N/A,,Overcast,130,2013-03-22 12:50:00
8:50 AM,66.2,64.4,94,29.78,5.0,SSE,10.4,-,N/A,,Overcast,150,2013-03-22 13:50:00
9:50 AM,71.6,66.2,83,29.79,7.0,South,15.0,19.6,N/A,,Overcast,190,2013-03-22 14:50:00
10:12 AM,71.6,66.2,83,29.79,7.0,South,12.7,17.3,N/A,,Overcast,180,2013-03-22 15:12:00
10:50 AM,73.4,66.2,78,29.80,10.0,South,16.1,19.6,N/A,,Overcast,190,2013-03-22 15:50:00
11:49 AM,71.6,66.2,83,29.90,7.0,SSW,6.9,-,N/A,,Overcast,210,2013-03-22 16:49:00
12:45 PM,77.0,68.0,74,29.80,10.0,SSW,19.6,23.0,N/A,,Overcast,200,2013-03-22 17:45:00
1:50 PM,78.8,66.2,65,29.76,10.0,South,16.1,-,N/A,,Mostly Cloudy,190,2013-03-22 18:50:00
2:50 PM,80.6,66.2,61,29.73,10.0,SSW,17.3,-,N/A,,Mostly Cloudy,210,2013-03-22 19:50:00
3:50 PM,80.6,66.2,61,29.72,10.0,South,17.3,-,N/A,,Mostly Cloudy,190,2013-03-22 20:50:00
4:50 PM,78.8,66.2,65,29.72,10.0,SSW,17.3,23.0,N/A,,Scattered Clouds,210,2013-03-22 21:50:00
5:50 PM,75.2,66.2,73,29.73,10.0,SSW,12.7,-,N/A,,Mostly Cloudy,200,2013-03-22 22:50:00
6:50 PM,75.2,66.2,73,29.74,10.0,South,12.7,19.6,N/A,,Mostly Cloudy,190,2013-03-22 23:50:00
7:50 PM,73.4,66.2,78,29.76,10.0,SSW,8.1,-,N/A,,Mostly Cloudy,200,2013-03-23 00:50:00
8:50 PM,71.6,68.0,88,29.77,10.0,South,9.2,-,N/A,,Overcast,190,2013-03-23 01:50:00
9:45 PM,69.8,66.2,88,29.78,10.0,SSE,5.8,-,N/A,,Mostly Cloudy,160,2013-03-23 02:45:00
11:15 PM,68.9,66.9,93,29.79,4.0,Calm,Calm,-,N/A,,Overcast,0,2013-03-23 04:15:00
11:35 PM,68.9,66.9,93,29.79,1.2,South,5.8,-,N/A,,Overcast,170,2013-03-23 04:35:00
11:55 PM,68.9,67.1,94,29.79,0.8,South,6.9,-,N/A,,Overcast,180,2013-03-23 04:55:00